| time (UTC) | temp F | wind direction | speed knots | gust knots | rain 1hr in | rain 24hr in | rain mn in | humidity % | barometer mb |
| 20260903153104 | 64 | 40 | 0.9 | 2.6 | 0.00 | 0.00 | 0.00 | 40 | 1014.7 |
| 20260903152604 | 63 | 40 | 0.9 | 1.7 | 0.00 | 0.00 | 0.00 | 40 | 1014.7 |
| 20260903152104 | 63 | 40 | 0.0 | 0.9 | 0.00 | 0.00 | 0.00 | 41 | 1014.7 |
| 20260903151603 | 63 | 40 | 0.0 | 0.9 | 0.00 | 0.00 | 0.00 | 43 | 1014.7 |
| 20260903151104 | 63 | 40 | 0.0 | 0.9 | 0.00 | 0.00 | 0.00 | 46 | 1014.7 |
| 20260903150608 | 63 | 55 | 0.0 | 0.9 | 0.00 | 0.00 | 0.00 | 45 | 1014.7 |
| 20260903150105 | 63 | 55 | 0.0 | 0.9 | 0.00 | 0.00 | 0.00 | 41 | 1014.8 |
| 20260903145609 | 63 | 55 | 0.0 | 0.9 | 0.00 | 0.00 | 0.00 | 39 | 1014.7 |
| 20260903145104 | 62 | 55 | 0.0 | 1.7 | 0.00 | 0.00 | 0.00 | 38 | 1014.6 |
| 20260903144604 | 61 | 55 | 0.0 | 1.7 | 0.00 | 0.00 | 0.00 | 38 | 1014.6 |
| 20260903144104 | 60 | 55 | 0.9 | 1.7 | 0.00 | 0.00 | 0.00 | 41 | 1014.4 |
| 20260903143604 | 60 | 56 | 0.0 | 0.9 | 0.00 | 0.00 | 0.00 | 43 | 1014.4 |
| 20260903142603 | 58 | 56 | 0.0 | 0.9 | 0.00 | 0.00 | 0.00 | 47 | 1014.3 |
| 20260903142103 | 58 | 56 | 0.0 | 0.0 | 0.00 | 0.00 | 0.00 | 47 | 1014.2 |
| 20260903141604 | 57 | 56 | 0.0 | 0.9 | 0.00 | 0.00 | 0.00 | 47 | 1014.2 |
| 20260903141104 | 57 | 56 | 0.0 | 0.9 | 0.00 | 0.00 | 0.00 | 46 | 1014.2 |
| 20260903135605 | 56 | 56 | 0.0 | 1.7 | 0.00 | 0.00 | 0.00 | 47 | 1014.2 |
| 20260903135105 | 57 | 57 | 0.0 | 1.7 | 0.00 | 0.00 | 0.00 | 48 | 1014.0 |
| 20260903134605 | 56 | 155 | 0.9 | 1.7 | 0.00 | 0.00 | 0.00 | 49 | 1013.9 |
| 20260903134104 | 57 | 155 | 0.9 | 1.7 | 0.00 | 0.00 | 0.00 | 51 | 1013.7 |
| 20260903133604 | 57 | 155 | 0.0 | 1.7 | 0.00 | 0.00 | 0.00 | 51 | 1013.7 |
| 20260903133104 | 57 | 155 | 0.9 | 1.7 | 0.00 | 0.00 | 0.00 | 51 | 1013.6 |
| 20260903132603 | 57 | 155 | 0.9 | 1.7 | 0.00 | 0.00 | 0.00 | 51 | 1013.6 |
| 20260903132104 | 57 | 155 | 0.9 | 1.7 | 0.00 | 0.00 | 0.00 | 51 | 1013.6 |
| 20260903131604 | 57 | 155 | 0.9 | 1.7 | 0.00 | 0.00 | 0.00 | 50 | 1013.7 |
| 20260903131104 | 57 | 155 | 0.9 | 1.7 | 0.00 | 0.00 | 0.00 | 51 | 1013.6 |
| 20260903130105 | 57 | 155 | 0.9 | 1.7 | 0.00 | 0.00 | 0.00 | 49 | 1013.6 |
| 20260903125609 | 57 | 155 | 0.9 | 1.7 | 0.00 | 0.00 | 0.00 | 51 | 1013.7 |
| 20260903125104 | 57 | 155 | 0.9 | 1.7 | 0.00 | 0.00 | 0.00 | 51 | 1013.7 |
| 20260903124604 | 57 | 155 | 0.9 | 1.7 | 0.00 | 0.00 | 0.00 | 50 | 1013.7 |
| 20260903124103 | 57 | 155 | 0.9 | 1.7 | 0.00 | 0.00 | 0.00 | 51 | 1013.7 |
| 20260903123603 | 57 | 155 | 0.9 | 1.7 | 0.00 | 0.00 | 0.00 | 51 | 1013.7 |
| 20260903123104 | 57 | 155 | 0.9 | 1.7 | 0.00 | 0.00 | 0.00 | 51 | 1013.8 |
| 20260903122104 | 56 | 155 | 0.9 | 1.7 | 0.00 | 0.00 | 0.00 | 53 | 1013.8 |
| 20260903121604 | 56 | 155 | 0.9 | 1.7 | 0.00 | 0.00 | 0.00 | 53 | 1013.7 |
| 20260903121104 | 56 | 155 | 0.9 | 1.7 | 0.00 | 0.00 | 0.00 | 53 | 1013.8 |
| 20260903120604 | 56 | 155 | 0.9 | 1.7 | 0.00 | 0.00 | 0.00 | 53 | 1013.8 |
| 20260903115610 | 57 | 155 | 0.9 | 0.9 | 0.00 | 0.00 | 0.00 | 54 | 1014.0 |
| 20260903115104 | 57 | 155 | 0.0 | 0.9 | 0.00 | 0.00 | 0.00 | 54 | 1014.1 |
| 20260903114605 | 57 | 155 | 0.0 | 0.9 | 0.00 | 0.00 | 0.00 | 54 | 1014.1 |
| 20260903114104 | 57 | 155 | 0.0 | 1.7 | 0.00 | 0.00 | 0.00 | 51 | 1014.1 |
| 20260903113104 | 57 | 155 | 0.9 | 1.7 | 0.00 | 0.00 | 0.00 | 47 | 1014.2 |
| 20260903112603 | 57 | 155 | 0.9 | 1.7 | 0.00 | 0.00 | 0.00 | 47 | 1014.2 |
| 20260903111103 | 57 | 155 | 0.0 | 0.9 | 0.00 | 0.00 | 0.00 | 47 | 1014.3 |
| 20260903110606 | 57 | 155 | 0.0 | 2.6 | 0.00 | 0.00 | 0.00 | 48 | 1014.3 |
| 20260903105609 | 58 | 153 | 1.7 | 2.6 | 0.00 | 0.00 | 0.00 | 49 | 1014.3 |
| 20260903105104 | 58 | 150 | 0.0 | 1.7 | 0.00 | 0.00 | 0.00 | 47 | 1014.4 |
| 20260903104604 | 58 | 150 | 0.0 | 1.7 | 0.00 | 0.00 | 0.00 | 47 | 1014.3 |
| 20260903104104 | 58 | 150 | 0.9 | 1.7 | 0.00 | 0.00 | 0.00 | 49 | 1014.3 |
| 20260903103604 | 59 | 150 | 0.0 | 0.0 | 0.00 | 0.00 | 0.00 | 56 | 1014.4 |
| 20260903103104 | 59 | 150 | 0.0 | 0.9 | 0.00 | 0.00 | 0.00 | 55 | 1014.5 |
| 20260903102603 | 59 | 150 | 0.0 | 1.7 | 0.00 | 0.00 | 0.00 | 51 | 1014.5 |
| 20260903102103 | 59 | 150 | 0.0 | 1.7 | 0.00 | 0.00 | 0.00 | 47 | 1014.5 |
| 20260903101604 | 59 | 150 | 0.9 | 1.7 | 0.00 | 0.00 | 0.00 | 46 | 1014.5 |
| 20260903101104 | 60 | 150 | 0.9 | 0.9 | 0.00 | 0.00 | 0.00 | 44 | 1014.6 |
| 20260903100604 | 60 | 150 | 0.0 | 0.9 | 0.00 | 0.00 | 0.00 | 44 | 1014.5 |
| 20260903100105 | 60 | 150 | 0.0 | 0.9 | 0.00 | 0.00 | 0.00 | 44 | 1014.6 |
| 20260903095604 | 60 | 150 | 0.0 | 0.9 | 0.00 | 0.00 | 0.00 | 44 | 1014.6 |
| 20260903094604 | 60 | 150 | 0.9 | 0.9 | 0.00 | 0.00 | 0.00 | 45 | 1014.5 |
| 20260903094103 | 60 | 150 | 0.9 | 0.9 | 0.00 | 0.00 | 0.00 | 45 | 1014.6 |
| 20260903093604 | 60 | 150 | 0.9 | 0.9 | 0.00 | 0.00 | 0.00 | 45 | 1014.7 |
| 20260903093104 | 60 | 150 | 0.0 | 0.9 | 0.00 | 0.00 | 0.00 | 46 | 1014.7 |
| 20260903091604 | 61 | 150 | 0.0 | 0.0 | 0.00 | 0.00 | 0.00 | 47 | 1014.7 |
| 20260903091105 | 61 | 150 | 0.0 | 0.0 | 0.00 | 0.00 | 0.00 | 47 | 1014.7 |
| 20260903090606 | 61 | 150 | 0.0 | 0.9 | 0.00 | 0.00 | 0.00 | 47 | 1014.7 |
| 20260903090105 | 61 | 150 | 0.0 | 1.7 | 0.00 | 0.00 | 0.00 | 47 | 1014.6 |
| 20260903085608 | 61 | 150 | 0.0 | 1.7 | 0.00 | 0.00 | 0.00 | 47 | 1014.6 |
| 20260903085104 | 61 | 150 | 0.9 | 1.7 | 0.00 | 0.00 | 0.00 | 47 | 1014.6 |
| 20260903084108 | 61 | 150 | 0.0 | 0.9 | 0.00 | 0.00 | 0.00 | 48 | 1014.8 |
| 20260903083104 | 62 | 150 | 0.0 | 1.7 | 0.00 | 0.00 | 0.00 | 47 | 1014.9 |
| 20260903082604 | 62 | 150 | 0.9 | 1.7 | 0.00 | 0.00 | 0.00 | 47 | 1014.9 |
| 20260903082104 | 62 | 150 | 0.9 | 1.7 | 0.00 | 0.00 | 0.00 | 47 | 1015.0 |
| 20260903081604 | 62 | 150 | 0.0 | 1.7 | 0.00 | 0.00 | 0.00 | 46 | 1015.1 |
| 20260903081122 | 62 | 150 | 0.9 | 1.7 | 0.00 | 0.00 | 0.00 | 45 | 1015.1 |
| 20260903080131 | 63 | 150 | 0.9 | 1.7 | 0.00 | 0.00 | 0.00 | 44 | 1015.1 |
| 20260903075604 | 63 | 150 | 0.9 | 1.7 | 0.00 | 0.00 | 0.00 | 44 | 1015.1 |
| 20260903075104 | 63 | 150 | 0.0 | 1.7 | 0.00 | 0.00 | 0.00 | 43 | 1015.2 |
| 20260903074604 | 64 | 150 | 0.9 | 2.6 | 0.00 | 0.00 | 0.00 | 43 | 1015.2 |
| 20260903073604 | 63 | 150 | 1.7 | 1.7 | 0.00 | 0.00 | 0.00 | 45 | 1015.1 |
| 20260903073104 | 63 | 150 | 0.9 | 1.7 | 0.00 | 0.00 | 0.00 | 48 | 1015.1 |
| 20260903072604 | 63 | 150 | 0.0 | 0.9 | 0.00 | 0.00 | 0.00 | 49 | 1015.1 |
| 20260903072104 | 63 | 150 | 0.9 | 1.7 | 0.00 | 0.00 | 0.00 | 49 | 1015.1 |
| 20260903071604 | 63 | 150 | 0.0 | 1.7 | 0.00 | 0.00 | 0.00 | 49 | 1015.1 |
| 20260903071104 | 63 | 150 | 0.0 | 0.9 | 0.00 | 0.00 | 0.00 | 48 | 1015.1 |
| 20260903070605 | 63 | 150 | 0.0 | 1.7 | 0.00 | 0.00 | 0.00 | 48 | 1015.1 |
| 20260903070104 | 63 | 150 | 0.9 | 1.7 | 0.00 | 0.00 | 0.00 | 49 | 1015.1 |
| 20260903065607 | 63 | 150 | 0.9 | 1.7 | 0.00 | 0.00 | 0.00 | 49 | 1015.1 |
| 20260903065104 | 64 | 150 | 0.9 | 0.9 | 0.00 | 0.00 | 0.00 | 48 | 1015.2 |
| 20260903064604 | 64 | 150 | 0.0 | 1.7 | 0.00 | 0.00 | 0.00 | 47 | 1015.1 |
| 20260903064104 | 64 | 150 | 0.9 | 1.7 | 0.00 | 0.00 | 0.00 | 48 | 1015.2 |
| 20260903063604 | 64 | 150 | 0.0 | 1.7 | 0.00 | 0.00 | 0.00 | 50 | 1015.2 |
| 20260903063104 | 64 | 150 | 0.9 | 1.7 | 0.00 | 0.00 | 0.00 | 50 | 1015.2 |
| 20260903062604 | 64 | 150 | 0.9 | 1.7 | 0.00 | 0.00 | 0.00 | 50 | 1015.3 |
| 20260903062104 | 65 | 150 | 0.9 | 1.7 | 0.00 | 0.00 | 0.00 | 50 | 1015.3 |
| 20260903061604 | 65 | 150 | 0.0 | 1.7 | 0.00 | 0.00 | 0.00 | 49 | 1015.3 |
| 20260903061104 | 65 | 150 | 0.9 | 1.7 | 0.00 | 0.00 | 0.00 | 50 | 1015.3 |
| 20260903060605 | 65 | 150 | 0.0 | 0.9 | 0.00 | 0.00 | 0.00 | 50 | 1015.3 |
| 20260903054604 | 65 | 150 | 0.0 | 1.7 | 0.00 | 0.00 | 0.00 | 50 | 1015.5 |
| 20260903054104 | 65 | 150 | 0.9 | 1.7 | 0.00 | 0.00 | 0.00 | 50 | 1015.5 |
| 20260903053603 | 66 | 150 | 0.0 | 0.9 | 0.00 | 0.00 | 0.00 | 50 | 1015.6 |
| 20260903053103 | 66 | 150 | 0.0 | 0.0 | 0.00 | 0.00 | 0.00 | 50 | 1015.5 |
| 20260903052607 | 66 | 150 | 0.0 | 1.7 | 0.00 | 0.00 | 0.00 | 50 | 1015.5 |
| 20260903052104 | 66 | 150 | 0.0 | 2.6 | 0.00 | 0.00 | 0.00 | 50 | 1015.6 |
| 20260903051604 | 66 | 150 | 0.9 | 2.6 | 0.00 | 0.00 | 0.00 | 50 | 1015.5 |
| 20260903051105 | 66 | 150 | 0.9 | 2.6 | 0.00 | 0.00 | 0.00 | 50 | 1015.5 |
| 20260903050606 | 66 | 185 | 0.0 | 0.9 | 0.00 | 0.00 | 0.00 | 51 | 1015.5 |
| 20260903045608 | 67 | 185 | 0.0 | 0.9 | 0.00 | 0.00 | 0.00 | 50 | 1015.5 |
| 20260903045104 | 67 | 185 | 0.0 | 0.0 | 0.00 | 0.00 | 0.00 | 49 | 1015.4 |
| 20260903044604 | 67 | 185 | 0.0 | 0.9 | 0.00 | 0.00 | 0.00 | 49 | 1015.4 |
| 20260903042604 | 68 | 185 | 0.0 | 1.7 | 0.00 | 0.00 | 0.00 | 48 | 1015.2 |
| 20260903042104 | 68 | 185 | 0.0 | 0.9 | 0.00 | 0.00 | 0.00 | 48 | 1015.1 |
| 20260903041604 | 68 | 185 | 0.0 | 0.9 | 0.00 | 0.00 | 0.00 | 47 | 1015.1 |
| 20260903040105 | 69 | 185 | 0.9 | 1.7 | 0.00 | 0.00 | 0.00 | 46 | 1015.1 |
| 20260903034103 | 69 | 168 | 0.9 | 1.7 | 0.00 | 0.00 | 0.00 | 47 | 1014.9 |
| 20260903033104 | 69 | 192 | 0.0 | 1.7 | 0.00 | 0.00 | 0.00 | 46 | 1014.8 |
| 20260903032604 | 70 | 192 | 0.0 | 1.7 | 0.00 | 0.00 | 0.00 | 45 | 1014.7 |
| 20260903032104 | 70 | 196 | 0.0 | 1.7 | 0.00 | 0.00 | 0.00 | 44 | 1014.7 |
| 20260903024604 | 72 | 216 | 0.0 | 1.7 | 0.00 | 0.00 | 0.00 | 36 | 1014.4 |
| 20260903024104 | 72 | 266 | 0.9 | 1.7 | 0.00 | 0.00 | 0.00 | 35 | 1014.3 |
| 20260903023603 | 73 | 270 | 0.9 | 2.6 | 0.00 | 0.00 | 0.00 | 35 | 1014.2 |
| 20260903023104 | 73 | 298 | 0.9 | 2.6 | 0.00 | 0.00 | 0.00 | 34 | 1014.1 |
| 20260903022103 | 74 | 276 | 0.9 | 2.6 | 0.00 | 0.00 | 0.00 | 33 | 1013.9 |
| 20260903021104 | 75 | 285 | 0.9 | 2.6 | 0.00 | 0.00 | 0.00 | 31 | 1013.9 |
| 20260903020604 | 76 | 285 | 0.9 | 2.6 | 0.00 | 0.00 | 0.00 | 29 | 1013.9 |
| 20260903020105 | 78 | 279 | 1.7 | 2.6 | 0.00 | 0.00 | 0.00 | 28 | 1013.9 |
| 20260903015604 | 79 | 294 | 1.7 | 2.6 | 0.00 | 0.00 | 0.00 | 26 | 1013.9 |
| 20260903015104 | 80 | 288 | 1.7 | 4.3 | 0.00 | 0.00 | 0.00 | 26 | 1013.9 |
| 20260903014604 | 80 | 256 | 1.7 | 4.3 | 0.00 | 0.00 | 0.00 | 25 | 1013.8 |
| 20260903012104 | 82 | 260 | 3.5 | 6.1 | 0.00 | 0.00 | 0.00 | 18 | 1013.5 |
| 20260903011604 | 83 | 240 | 3.5 | 6.1 | 0.00 | 0.00 | 0.00 | 18 | 1013.5 |
| 20260903011103 | 83 | 265 | 3.5 | 7.0 | 0.00 | 0.00 | 0.00 | 18 | 1013.4 |
| 20260903005608 | 85 | 233 | 3.5 | 7.8 | 0.00 | 0.00 | 0.00 | 20 | 1013.4 |
| 20260903004104 | 86 | 238 | 2.6 | 7.8 | 0.00 | 0.00 | 0.00 | 19 | 1013.4 |
| 20260903003603 | 85 | 246 | 3.5 | 7.8 | 0.00 | 0.00 | 0.00 | 18 | 1013.4 |
| 20260903003104 | 85 | 237 | 3.5 | 7.0 | 0.00 | 0.00 | 0.00 | 17 | 1013.4 |
| 20260903002106 | 87 | 266 | 4.3 | 7.8 | 0.00 | 0.00 | 0.00 | 17 | 1013.4 |
| 20260903001604 | 87 | 258 | 2.6 | 7.0 | 0.00 | 0.00 | 0.00 | 17 | 1013.4 |
| 20260903000604 | 86 | 236 | 4.3 | 7.8 | 0.00 | 0.00 | 0.00 | 18 | 1013.4 |
| 20260903000107 | 87 | 263 | 3.5 | 10.4 | 0.00 | 0.00 | 0.00 | 17 | 1013.4 |
| 20260902235603 | 86 | 254 | 3.5 | 10.4 | 0.00 | 0.00 | 0.00 | 17 | 1013.4 |
| 20260902235104 | 87 | 229 | 3.5 | 7.8 | 0.00 | 0.00 | 0.00 | 17 | 1013.4 |
| 20260902234604 | 87 | 258 | 3.5 | 8.7 | 0.00 | 0.00 | 0.00 | 17 | 1013.4 |
| 20260902234104 | 87 | 189 | 3.5 | 8.7 | 0.00 | 0.00 | 0.00 | 15 | 1013.5 |
| 20260902233604 | 87 | 196 | 2.6 | 7.8 | 0.00 | 0.00 | 0.00 | 16 | 1013.5 |
| 20260902232604 | 86 | 279 | 4.3 | 7.8 | 0.00 | 0.00 | 0.00 | 18 | 1013.6 |
| 20260902231104 | 86 | 269 | 5.2 | 8.7 | 0.00 | 0.00 | 0.00 | 18 | 1013.9 |
| 20260902230606 | 86 | 267 | 5.2 | 8.7 | 0.00 | 0.00 | 0.00 | 18 | 1013.9 |
| 20260902230104 | 86 | 259 | 4.3 | 7.8 | 0.00 | 0.00 | 0.00 | 17 | 1013.9 |
| 20260902224104 | 86 | 262 | 5.2 | 7.8 | 0.00 | 0.00 | 0.00 | 18 | 1014.0 |
| 20260902222654 | 86 | 240 | 5.2 | 8.7 | 0.00 | 0.00 | 0.00 | 18 | 1014.1 |
| 20260902222104 | 85 | 246 | 4.3 | 7.8 | 0.00 | 0.00 | 0.00 | 18 | 1014.2 |
| 20260902221604 | 85 | 234 | 4.3 | 7.8 | 0.00 | 0.00 | 0.00 | 19 | 1014.3 |
| 20260902220604 | 85 | 266 | 3.5 | 7.8 | 0.00 | 0.00 | 0.00 | 19 | 1014.4 |
| 20260902214603 | 85 | 294 | 4.3 | 7.0 | 0.00 | 0.00 | 0.00 | 18 | 1014.4 |
| 20260902214103 | 85 | 280 | 4.3 | 7.0 | 0.00 | 0.00 | 0.00 | 19 | 1014.5 |
| 20260902213604 | 85 | 290 | 5.2 | 7.0 | 0.00 | 0.00 | 0.00 | 18 | 1014.5 |
| 20260902212604 | 84 | 265 | 5.2 | 7.8 | 0.00 | 0.00 | 0.00 | 19 | 1014.6 |
| 20260902212104 | 85 | 264 | 3.5 | 8.7 | 0.00 | 0.00 | 0.00 | 19 | 1014.7 |
| 20260902211103 | 85 | 259 | 2.6 | 8.7 | 0.00 | 0.00 | 0.00 | 19 | 1014.8 |
| 20260902210606 | 84 | 254 | 3.5 | 7.8 | 0.00 | 0.00 | 0.00 | 19 | 1014.9 |
| 20260902210105 | 84 | 256 | 4.3 | 10.4 | 0.00 | 0.00 | 0.00 | 19 | 1014.8 |
| 20260902205613 | 84 | 286 | 4.3 | 10.4 | 0.00 | 0.00 | 0.00 | 20 | 1014.9 |
| 20260902205104 | 85 | 273 | 3.5 | 8.7 | 0.00 | 0.00 | 0.00 | 18 | 1014.9 |
| 20260902204603 | 85 | 276 | 4.3 | 10.4 | 0.00 | 0.00 | 0.00 | 18 | 1014.9 |
| 20260902204104 | 84 | 282 | 2.6 | 10.4 | 0.00 | 0.00 | 0.00 | 17 | 1015.0 |
| 20260902203604 | 84 | 249 | 5.2 | 10.4 | 0.00 | 0.00 | 0.00 | 16 | 1015.0 |
| 20260902203104 | 85 | 267 | 4.3 | 7.0 | 0.00 | 0.00 | 0.00 | 17 | 1014.9 |
| 20260902201620 | 84 | 267 | 4.3 | 7.8 | 0.00 | 0.00 | 0.00 | 18 | 1015.0 |
| 20260902201104 | 84 | 266 | 4.3 | 10.4 | 0.00 | 0.00 | 0.00 | 20 | 1014.9 |
| 20260902200604 | 83 | 260 | 3.5 | 10.4 | 0.00 | 0.00 | 0.00 | 20 | 1014.9 |
| 20260902195607 | 84 | 256 | 4.3 | 6.1 | 0.00 | 0.00 | 0.00 | 21 | 1015.0 |
| 20260902194604 | 83 | 276 | 2.6 | 7.0 | 0.00 | 0.00 | 0.00 | 19 | 1015.2 |
| 20260902194104 | 83 | 293 | 2.6 | 7.0 | 0.00 | 0.00 | 0.00 | 19 | 1015.2 |
| 20260902193104 | 83 | 273 | 2.6 | 7.0 | 0.00 | 0.00 | 0.00 | 20 | 1015.2 |
| 20260902192604 | 83 | 279 | 3.5 | 7.0 | 0.00 | 0.00 | 0.00 | 19 | 1015.3 |
| 20260902192104 | 83 | 300 | 3.5 | 6.1 | 0.00 | 0.00 | 0.00 | 18 | 1015.3 |
| 20260902191104 | 83 | 303 | 3.5 | 6.1 | 0.00 | 0.00 | 0.00 | 19 | 1015.4 |
| 20260902190603 | 83 | 278 | 2.6 | 4.3 | 0.00 | 0.00 | 0.00 | 19 | 1015.4 |
| 20260902190104 | 83 | 304 | 1.7 | 4.3 | 0.00 | 0.00 | 0.00 | 21 | 1015.4 |
| 20260902185104 | 82 | 312 | 0.9 | 6.1 | 0.00 | 0.00 | 0.00 | 22 | 1015.5 |
| 20260902184604 | 81 | 315 | 2.6 | 6.1 | 0.00 | 0.00 | 0.00 | 23 | 1015.5 |
| 20260902184104 | 81 | 336 | 3.5 | 6.1 | 0.00 | 0.00 | 0.00 | 22 | 1015.5 |
| 20260902183603 | 81 | 280 | 2.6 | 5.2 | 0.00 | 0.00 | 0.00 | 24 | 1015.5 |
| 20260902183103 | 80 | 278 | 0.9 | 4.3 | 0.00 | 0.00 | 0.00 | 23 | 1015.5 |
| 20260902182604 | 80 | 277 | 1.7 | 5.2 | 0.00 | 0.00 | 0.00 | 23 | 1015.6 |
| 20260902182105 | 79 | 314 | 2.6 | 5.2 | 0.00 | 0.00 | 0.00 | 23 | 1015.7 |
| 20260902181104 | 79 | 262 | 1.7 | 4.3 | 0.00 | 0.00 | 0.00 | 23 | 1016.0 |
| 20260902180604 | 78 | 293 | 2.6 | 4.3 | 0.00 | 0.00 | 0.00 | 23 | 1016.0 |
| 20260902180105 | 78 | 268 | 0.9 | 4.3 | 0.00 | 0.00 | 0.00 | 22 | 1016.0 |
| 20260902175104 | 77 | 276 | 0.9 | 4.3 | 0.00 | 0.00 | 0.00 | 23 | 1016.0 |
| 20260902174604 | 77 | 289 | 1.7 | 4.3 | 0.00 | 0.00 | 0.00 | 23 | 1016.1 |
| 20260902174104 | 76 | 280 | 0.9 | 2.6 | 0.00 | 0.00 | 0.00 | 23 | 1016.1 |
| 20260902173603 | 76 | 253 | 0.9 | 2.6 | 0.00 | 0.00 | 0.00 | 22 | 1016.1 |
| 20260902172604 | 75 | 294 | 0.9 | 2.6 | 0.00 | 0.00 | 0.00 | 22 | 1016.1 |
| 20260902171604 | 75 | 286 | 0.9 | 2.6 | 0.00 | 0.00 | 0.00 | 21 | 1016.1 |
| 20260902170606 | 74 | 328 | 1.7 | 2.6 | 0.00 | 0.00 | 0.00 | 20 | 1016.1 |
| 20260902170104 | 74 | 278 | 1.7 | 2.6 | 0.00 | 0.00 | 0.00 | 21 | 1016.0 |
| 20260902165608 | 73 | 297 | 0.9 | 2.6 | 0.00 | 0.00 | 0.00 | 23 | 1016.0 |
| 20260902165104 | 73 | 293 | 0.9 | 2.6 | 0.00 | 0.00 | 0.00 | 24 | 1016.0 |
| 20260902163603 | 72 | 285 | 1.7 | 4.3 | 0.00 | 0.00 | 0.00 | 24 | 1015.8 |
| 20260902162604 | 71 | 263 | 1.7 | 2.6 | 0.00 | 0.00 | 0.00 | 26 | 1015.8 |
| 20260902162104 | 71 | 280 | 0.9 | 2.6 | 0.00 | 0.00 | 0.00 | 26 | 1015.8 |
| 20260902161604 | 71 | 232 | 1.7 | 2.6 | 0.00 | 0.00 | 0.00 | 28 | 1015.6 |
| 20260902161104 | 71 | 196 | 0.9 | 2.6 | 0.00 | 0.00 | 0.00 | 26 | 1015.6 |
| 20260902160603 | 71 | 163 | 0.9 | 1.7 | 0.00 | 0.00 | 0.00 | 25 | 1015.7 |
| 20260902160104 | 71 | 163 | 0.0 | 1.7 | 0.00 | 0.00 | 0.00 | 25 | 1015.8 |
| 20260902155615 | 71 | 163 | 0.0 | 1.7 | 0.00 | 0.00 | 0.00 | 28 | 1015.9 |
| 20260902155104 | 71 | 163 | 0.0 | 1.7 | 0.00 | 0.00 | 0.00 | 31 | 1015.9 |
| 20260902154604 | 70 | 163 | 0.0 | 0.9 | 0.00 | 0.00 | 0.00 | 31 | 1015.9 |